アトラス彗星

C/2021 C4 ( ATLAS )

English version
Home page
Updated on April 24, 2022

---------------------------------------------------------------------

・ プロフィール

発見日 2021年2月12日
発見光度 18.7等
発見者 Asteroid Terrestrial-Impact Last Alert System (ATLAS) search program

・ 写真集

・ 軌道要素

Epoch 2021 Jan. 26.0 TT = JDT 2459240.5
T 2021 Jan. 17.00605 TT                                 Rudenko
q   4.5041478            (2000.0)            P               Q
z  +0.0002326      Peri.  320.22648     -0.63755162     -0.74888104
 +/-0.0000044      Node   194.27834     -0.37409237     +0.09572190
e   0.9989523      Incl.  132.83972     -0.67348559     +0.65575492
From 196 observations 2021 Feb. 12-2022 Jan. 1, mean residual 0".6.

・ 光度変化

        m1 = 8.5 + 5 logΔ + 10.0 log r

---------------------------------------------------------------------

軌道要素はM.P.E.C. 2022-A21に掲載されたものです。
光度グラフはComet for Windowsで作成したものです。

---------------------------------------------------------------------

Copyright(C) Seiichi Yoshida (comet@aerith.net). All rights reserved.